Regional Weather Roundup
Issued by NWS

Home | Current Version | Previous Version | Graphics & Text | Print | Product List | Glossary On
Versions: 1 2 3 4 5 6 7 8 9 10 11 12 13 14 15 16 17 18 19 20 21 22 23 24 25 26 27 28 29 30 31 32 33 34 35 36 37 38 39 40 41 42 43 44 45 46 47 48 49 50
000
ASUS43 KMKX 251321
RWRWI

WISCONSIN REGIONAL WEATHER ROUNDUP
NATIONAL WEATHER SERVICE MILWAUKEE/SULLIVAN WI
800 AM CDT SAT APR 25 2015

NOTE: "FAIR" INDICATES FEW OR NO CLOUDS BELOW 12,000 FEET WITH NO
SIGNIFICANT WEATHER AND/OR OBSTRUCTIONS TO VISIBILITY.

WIZ001-002-006>008-014>016-023>028-251400-
NORTHWEST WISCONSIN

CITY           SKY/WX    TMP DP  RH WIND       PRES   REMARKS
SUPERIOR ARPT  CLOUDY    36  30  81 E17G24    29.96S WCI  25
ASHLAND        CLOUDY    37  31  78 N12       29.97S WCI  29
HAYWARD        MOSUNNY   41  28  60 NE10      29.92S
SIREN          MOSUNNY   43  31  63 E7        29.90R
CUMBERLAND     SUNNY     41  28  60 E13G21    29.88R
RICE LAKE      SUNNY     42  26  53 E16       29.89S
CHETEK         SUNNY     41  28  58 E12G17    29.89S
LADYSMITH      CLOUDY    40  24  52 E7        29.92S
EAU CLAIRE     CLOUDY    41  27  57 E12       29.87S
MENOMONIE      CLOUDY    42  30  62 E15       29.86F
NEW RICHMOND   MOSUNNY   42  32  68 E14       29.86R
OSCEOLA        PTSUNNY   44  34  68 E12G18    29.90R
$$

WIZ003>005-009-010-017-018-251400-
NORTH CENTRAL WISCONSIN

CITY           SKY/WX    TMP DP  RH WIND       PRES   REMARKS
MANITOWISH WTR PTSUNNY   38  19  44 SE6       29.94S WCI  34
ARBOR VITAE    PTSUNNY   39  17  40 SE7       29.94R WCI  34
WOODRUFF       PTSUNNY   39  17  40 SE7       29.94R WCI  34
RHINELANDER    MOSUNNY   37  17  44 E13       29.94S WCI  29
EAGLE RIVER    MOSUNNY   38  15  39 E7        29.95R WCI  32
LAND O LAKES   SUNNY     38  18  44 SE6       29.96S WCI  34
PHILLIPS       MOSUNNY   39  18  43 E9        29.92R WCI  33
TOMAHAWK       PTSUNNY   39  17  42 E8        29.93S WCI  33
MEDFORD        CLOUDY    38  21  50 E10       29.90R WCI  30
MERRILL        CLOUDY    39  17  40 E6        29.92S
$$

WIZ029-030-035-036-043>047-251400-
CENTRAL WISCONSIN

CITY           SKY/WX    TMP DP  RH WIND       PRES   REMARKS
WAUSAU         CLOUDY    38  19  46 E9        29.90S WCI  31
MOSINEE        CLOUDY    37  21  52 E9        29.91S WCI  31
MARSHFIELD     CLOUDY    39  25  57 E13       29.89R WCI  31
STEVENS POINT  CLOUDY    37  24  58 NE13      29.91S WCI  29
WAUPACA        CLOUDY    40  27  58 NE7       29.93S
WAUTOMA        CLOUDY    39  32  76 NE12G20   29.90S WCI  32
WISC RAPIDS    CLOUDY    39  26  59 E12       29.90S WCI  32
CAMP DOUGLAS   CLOUDY    39  39 100 E10       29.86S WCI  32
$$

WIZ011>013-019>022-031-037>040-048>050-251400-
NORTHEAST WISCONSIN

CITY           SKY/WX    TMP DP  RH WIND       PRES   REMARKS
ANTIGO         CLOUDY    36  19  50 E10       29.93R WCI  28
SHAWANO        CLOUDY    40  27  59 E13G18    29.95R WCI  32
OCONTO         CLOUDY    39  25  57 E9        29.96R WCI  33
STURGEON BAY   CLOUDY    37  21  52 E14       29.99R WCI  29
GREEN BAY      CLOUDY    41  26  55 E12       29.95R
MANITOWOC      CLOUDY    40  28  62 NE7G17    29.94R
APPLETON       CLOUDY    39  21  48 NE12G18   29.92R WCI  32
CLINTONVILLE   CLOUDY    37  23  56 E9        29.94R WCI  31
OSHKOSH        CLOUDY    40  30  67 NE12G21   29.90S WCI  33
$$

WIZ032>034-041-042-053>061-251400-
SOUTHWEST WISCONSIN

CITY           SKY/WX    TMP DP  RH WIND       PRES   REMARKS
LA CROSSE      CLOUDY    42  36  79 NE7       29.83S
SPARTA         CLOUDY    40  35  83 E13G20    29.86S WCI  32
VIROQUA        CLOUDY    39  37  92 E16G23    29.81S WCI  30
BOSCOBEL       CLOUDY    43  35  73 NE10G18   29.81S
PRAIRIE DU CHI CLOUDY    42  34  72 NE12G18   29.77F
PLATTEVILLE    CLOUDY    42  37  83 NE13      29.76S
$$

WIZ056-057-062-063-064-067-068-251400-
SOUTH CENTRAL WISCONSIN

CITY           SKY/WX    TMP DP  RH WIND       PRES   REMARKS
REEDSBURG      CLOUDY    39  35  86 E8        29.85S WCI  33
BARABOO/DELLS  CLOUDY    39  35  85 E13G20    29.85S WCI  31
LONE ROCK      CLOUDY    42  35  76 E14       29.83R
MINERAL POINT  PTSUNNY   41  36  81 NE16      29.78S
MADISON        CLOUDY    41  35  79 E14       29.84R
MIDDLETON      CLOUDY    42  36  78 NE10      29.84R
WATERTOWN      CLOUDY    40  38  93 E15       29.84S WCI  32
MONROE         CLOUDY    43  37  81 E14G22    29.77S
JANESVILLE     CLOUDY    45  37  76 E16       29.78
$$

WIZ051-052-058>065-066-070>072-251400-
SOUTHEAST WISCONSIN

CITY           SKY/WX    TMP DP  RH WIND       PRES   REMARKS
MILWAUKEE      CLOUDY    40  35  83 NE13      29.87S WCI  32
WAUKESHA       CLOUDY    39  34  81 E12       29.86S WCI  32
MILWAUKEE/TIMM CLOUDY    39  34  81 NE9       29.89R WCI  33
RACINE         CLOUDY    41  36  82 E12       29.86F
BURLINGTON     CLOUDY    41  36  83 E10       29.83R
KENOSHA        CLOUDY    42  38  85 E13       29.83F
FOND DU LAC    CLOUDY    41  33  73 NE12      29.90R
SHEBOYGAN      CLOUDY    39  29  67 NE16      29.90S WCI  30
WEST BEND      CLOUDY    37  32  81 NE8       29.88S WCI  31
JUNEAU         CLOUDY    40  34  79 NE10      29.88R WCI  33
$$

LSZ147-162-251400-
LAKE SUPERIOR

STATION/POSITION TIME  TEMP    WIND        PRES    WAVE
                       AIR SEA DIR/SP/G            HT/PER
                 (UTC) (F)     (DEG/KT/KT) (MB)    (FT/S)
W MID LAKE BUOY  1250   34 34   70/ 14/ 16 1018.2R   3/ 4
DEVILS ISLAND    1300   35      70/ 21/ 24 1016.9R
PORT WING        1240   36      40/ 18/ 20 1015.2R
SAXON HARBOR     1240   38      40/  3/  6 1014.9R
$$

LMZ867-665-643>646-251400-
LAKE MICHIGAN

STATION/POSITION TIME  TEMP    WIND        PRES    WAVE
                       AIR SEA DIR/SP/G            HT/PER
                 (UTC) (F)     (DEG/KT/KT) (MB)    (FT/S)
CHAMBERS ISLAND  1200   36      30/ 11/ 13 1015.6R
NORTHPORT PIER   1200   35      70/  9/ 14 1015.9R
SISTER BAY       1217   38      40/  4/ 10   N/A
KEWAUNEE LAKESHO 1200   37      50/ 12/ 15 1013.3R
SHEBOYGAN LAKESH 1300   38      30/ 14/ 16 1013.6S
PORT WASHINGTON  1240   42      40/ 13/ 17 1012.9R
MILWAUKEE LAKESH 1300   39      10/ 12/ 15   N/A
KENOSHA   LAKESH 1300   41      60/ 12/ 16 1010.5F
$$

TC  - TEMPERATURE IN CELSIUS
VSB - VISIBILITY IN STATUTE MILES
WCI - WIND CHILL INDEX
HX  - HEAT INDEX




USA.gov is the U.S. government's official web portal to all federal, state and local government web resources and services.